C/2022 QE78 ( ATLAS )

Japanese version
Home page
Updated on September 2, 2023

---------------------------------------------------------------------

* Profile

Discovery Date August 27, 2022
Magnitude 19.4 mag
Discoverer Asteroid Terrestrial-Impact Last Alert System (ATLAS) search program

* Pictures

* Orbital Elements

Epoch 2023 Sept. 13.0 TT = JDT 2460200.5
T 2025 Sept. 10.18164 TT                                Rudenko
q   5.4818570            (2000.0)            P               Q
z  -0.0006105      Peri.    0.34646     -0.50338455     -0.69307518
 +/-0.0000054      Node   119.94606     +0.79132262     -0.60960313
e   1.0033468      Incl.   36.54802     +0.34700505     +0.38474774
>From 481 observations 2022 Aug. 27-2023 Aug. 24, mean residual 0".4.

* Finding Charts

* Magnitudes Graph

        m1 = 4.0 + 5 log d + 10.0 log r

---------------------------------------------------------------------

The orbital elements are published on M.P.E.C. 2023-Q150.
The charts are made with StellaNavigator Ver.10 (AstroArts).
The magnitudes graphs are made with Comet for Windows.

---------------------------------------------------------------------

Copyright(C) Seiichi Yoshida (comet@aerith.net). All rights reserved.